Find Starlink 37028

NORAD ID: 68270 Int'l Des: 2026-055 Owner: SPXS Country: US Constellation: starlink operational
LEOCIRCULAR

リアルタイム位置

3D地球を読み込み中...

Starlink 37028について

説明を読み込み中...

次回通過

Passes for default location (London). Set your location on the main map for personalized predictions.

高度履歴

Loading altitude history...

軌道要素

1 68270U 26055J 26124.16668980 .00026676 00000-0 88710-3 0 9994
2 68270 53.1605 62.4161 0001331 84.7492 254.8022 15.31010433 6018
Epoch: May 4, 2026 • Age: 9 hours

現在のステータス

高度 474.3 km
速度 7.63 km/s
衛星直下点 -3.72°S, 169.8°W
打ち上げ日 Mar 19, 2026
運用期間 0.1 years
タイプ internet

技術仕様

分類 Payload
質量 575.00 kg
乾燥質量 530.00 kg
総質量 575.00 kg
長さ 0.30 m
直径 4.10 m
スパン 29.00 m
形状 Box + pan
製造者 SPXS
バスタイプ Starlink V2MO
フェーズステータス In Orbit
所有者/国 SPXS/US

Most Searched